M I D A S
Marine Information and Data Acquisition System
Tripno 1430 of the Zeeleeuw from 2008-02-27 07:35:08 to 2008-02-27 15:52:09
Back to CruiseResearch ActivitiesStationsMapUnderway DataData graphs

EquipmentUnitsComments
TimeDGPSUTC
LatitudeDGPSDM.mWGS84
LongitudeDGPSDM.mWGS84
SpeedMeteo Stationm/sRelative wind speed
DirectionMeteo StationdegRelative wind direction
TemperatureMeteo Stationdeg CelciusAir temperature
PressureMeteo StationPaAtmospheric pressure
HumidityMeteo Station%Relative humidity
Missing or incorrect values are displayed as -999
Metereological data collected by the RV Zeeleeuw from 2008-02-27 07:37:18 to 2008-02-27 16:00:25
Time Latitude Longitude Speed Direction Temperature Pressure Humidity
2008-02-27 07:38 51°13.677 2°55.876 7.5 55 7.8 101580 81
2008-02-27 07:39 51°13.69 2°55.764 3.6 52 8 101580 81
2008-02-27 07:40 51°13.693 2°55.733 1.5 309 7.9 101580 79
2008-02-27 07:41 51°13.723 2°55.742 4.8 304 7.9 101580 78
2008-02-27 07:42 51°13.808 2°55.66 9.3 302 7.9 101580 78
2008-02-27 07:43 51°13.933 2°55.558 8.2 305 7.8 101580 78
2008-02-27 07:44 51°14.031 2°55.486 4.4 301 7.8 101580 78
2008-02-27 07:45 51°14.119 2°55.418 11.6 306 7.8 101590 79
2008-02-27 07:46 51°14.252 2°55.275 14.9 307 7.8 101590 80
2008-02-27 07:47 51°14.376 2°55.038 13.7 306 7.8 101570 81
2008-02-27 07:48 51°14.479 2°54.76 15.1 305 7.7 101570 81
2008-02-27 07:49 51°14.581 2°54.468 16.3 304 7.7 101570 81
2008-02-27 07:50 51°14.665 2°54.164 15.3 303 7.7 101570 82
2008-02-27 07:51 51°14.72 2°53.833 15.7 328 7.7 101590 82
2008-02-27 07:52 51°14.754 2°53.508 16.9 330 7.7 101580 82
2008-02-27 07:53 51°14.749 2°53.171 14.2 334 7.7 101590 82
2008-02-27 07:54 51°14.736 2°52.837 17.6 339 7.7 101590 82
2008-02-27 07:55 51°14.688 2°52.509 16.7 339 7.7 101580 82
2008-02-27 07:56 51°14.635 2°52.179 13.5 338 7.7 101580 83
2008-02-27 07:57 51°14.576 2°51.854 15.8 338 7.7 101580 83
2008-02-27 07:58 51°14.524 2°51.525 16.2 338 7.6 101590 83
2008-02-27 07:59 51°14.477 2°51.195 16 336 7.6 101590 83
2008-02-27 08:00 51°14.432 2°50.861 18 339 7.6 101580 83
2008-02-27 08:01 51°14.385 2°50.527 15.9 336 7.7 101600 83
2008-02-27 08:02 51°14.339 2°50.193 16 338 7.6 101590 83
2008-02-27 08:03 51°14.293 2°49.857 13.8 337 7.6 101590 83
2008-02-27 08:04 51°14.245 2°49.526 18.6 339 7.6 101600 82
2008-02-27 08:05 51°14.199 2°49.193 14.8 336 7.6 101590 81
2008-02-27 08:06 51°14.145 2°48.861 15.8 343 7.6 101590 82
2008-02-27 08:07 51°14.03 2°48.574 17.3 348 7.6 101580 81
2008-02-27 08:08 51°13.9 2°48.3 16 345 7.6 101580 81
2008-02-27 08:09 51°13.771 2°48.023 13.6 349 7.6 101590 82
2008-02-27 08:10 51°13.643 2°47.746 15.9 346 7.6 101590 82
2008-02-27 08:11 51°13.517 2°47.467 13.8 348 7.6 101610 82
2008-02-27 08:12 51°13.389 2°47.188 15.4 346 7.6 101590 82
2008-02-27 08:13 51°13.262 2°46.907 14.6 348 7.6 101610 82
2008-02-27 08:14 51°13.135 2°46.626 14.8 348 7.6 101610 81
2008-02-27 08:15 51°13.008 2°46.345 16.1 347 7.6 101610 81
2008-02-27 08:16 51°12.883 2°46.063 14 345 7.6 101610 81
2008-02-27 08:17 51°12.766 2°45.773 14.9 346 7.6 101610 81
2008-02-27 08:18 51°12.664 2°45.47 14.9 340 7.6 101610 81
2008-02-27 08:19 51°12.58 2°45.156 13.4 341 7.6 101620 81
2008-02-27 08:20 51°12.497 2°44.84 14.5 342 7.6 101630 81
2008-02-27 08:21 51°12.412 2°44.525 17.3 343 7.7 101630 81
2008-02-27 08:22 51°12.328 2°44.21 16.7 343 7.7 101630 81
2008-02-27 08:23 51°12.24 2°43.898 16 343 7.6 101630 80
2008-02-27 08:24 51°12.147 2°43.59 14 343 7.7 101640 81
2008-02-27 08:25 51°12.054 2°43.281 14.6 343 7.7 101650 81
2008-02-27 08:26 51°11.953 2°42.981 13.9 346 7.7 101650 81
2008-02-27 08:27 51°11.839 2°42.692 17.3 343 7.7 101640 82
2008-02-27 08:28 51°11.726 2°42.404 14.2 344 7.6 101630 81
2008-02-27 08:29 51°11.605 2°42.121 13.6 346 7.6 101630 81
2008-02-27 08:30 51°11.476 2°41.844 13.8 346 7.6 101640 81
2008-02-27 08:31 51°11.349 2°41.565 15 346 7.6 101630 81
2008-02-27 08:32 51°11.221 2°41.284 14.5 346 7.6 101640 81
2008-02-27 08:33 51°11.093 2°41.002 14.9 348 7.6 101630 82
2008-02-27 08:34 51°10.965 2°40.718 14.4 347 7.6 101640 82
2008-02-27 08:35 51°10.836 2°40.434 12.1 342 7.6 101640 81
2008-02-27 08:36 51°10.706 2°40.149 13.3 345 7.6 101630 81
2008-02-27 08:37 51°10.577 2°39.866 15.6 350 7.6 101640 82
2008-02-27 08:38 51°10.45 2°39.578 15.9 346 7.6 101640 82
2008-02-27 08:39 51°10.335 2°39.276 14.3 347 7.7 101630 82
2008-02-27 08:40 51°10.221 2°38.973 15.8 346 7.6 101640 81
2008-02-27 08:41 51°10.119 2°38.675 13.3 345 7.6 101650 81
2008-02-27 08:42 51°10.067 2°38.512 10.6 349 7.6 101660 81
2008-02-27 08:43 51°10.034 2°38.422 10.4 352 7.7 101660 82
2008-02-27 08:44 51°10.007 2°38.362 8.6 354 7.7 101660 83
2008-02-27 08:45 51°9.984 2°38.322 9.8 356 7.6 101660 83
2008-02-27 08:46 51°9.963 2°38.289 9.2 356 7.6 101660 81
2008-02-27 08:47 51°9.943 2°38.26 9.5 2 7.6 101660 82
2008-02-27 08:48 51°9.924 2°38.234 8.5 360 7.6 101670 82
2008-02-27 08:49 51°9.905 2°38.21 8.5 360 7.6 101660 82
2008-02-27 08:50 51°9.885 2°38.189 8.8 5 7.5 101670 81
2008-02-27 08:51 51°9.852 2°38.144 10.3 354 7.5 101660 80
2008-02-27 08:52 51°9.819 2°38.072 10.2 346 7.6 101660 80
2008-02-27 08:53 51°9.795 2°37.976 10.1 344 7.5 101640 79
2008-02-27 08:54 51°9.775 2°37.898 8.9 337 7.6 101660 79
2008-02-27 08:55 51°9.76 2°37.796 9.7 339 7.7 101660 81
2008-02-27 08:56 51°9.743 2°37.7 9.7 342 7.7 101660 81
2008-02-27 08:57 51°9.728 2°37.605 10.5 343 7.7 101660 81
2008-02-27 08:58 51°9.711 2°37.51 9.5 338 7.7 101650 81
2008-02-27 08:59 51°9.694 2°37.416 9.2 340 7.7 101670 81
2008-02-27 09:00 51°9.677 2°37.321 10.3 339 7.8 101670 82
2008-02-27 09:01 51°9.662 2°37.222 10.6 338 7.7 101660 81
2008-02-27 09:02 51°9.642 2°37.128 11.6 339 7.7 101670 82
2008-02-27 09:03 51°9.625 2°37.041 11 340 7.7 101680 81
2008-02-27 09:04 51°9.608 2°36.947 10.4 342 7.7 101680 81
2008-02-27 09:05 51°9.591 2°36.85 10.8 337 7.7 101680 81
2008-02-27 09:06 51°9.574 2°36.753 11.5 335 7.7 101680 82
2008-02-27 09:07 51°9.557 2°36.658 11.1 337 7.7 101680 81
2008-02-27 09:08 51°9.54 2°36.564 10 339 7.7 101670 79
2008-02-27 09:09 51°9.522 2°36.471 10 333 7.7 101680 80
2008-02-27 09:10 51°9.505 2°36.375 9.5 340 7.8 101700 81
2008-02-27 09:11 51°9.487 2°36.279 11.1 339 7.8 101690 81
2008-02-27 09:12 51°9.468 2°36.184 10.5 341 7.7 101690 80
2008-02-27 09:13 51°9.452 2°36.086 10.8 336 7.7 101700 81
2008-02-27 09:14 51°9.434 2°35.986 9.8 344 7.8 101690 81
2008-02-27 09:15 51°9.417 2°35.886 10.4 339 7.7 101700 81
2008-02-27 09:16 51°9.4 2°35.785 10.1 338 7.7 101700 80
2008-02-27 09:17 51°9.381 2°35.688 9.8 340 7.7 101700 80
2008-02-27 09:18 51°9.363 2°35.594 9 336 7.7 101700 80
2008-02-27 09:19 51°9.346 2°35.501 8.2 336 7.7 101700 80
2008-02-27 09:20 51°9.329 2°35.409 8.6 339 7.7 101700 80
2008-02-27 09:21 51°9.31 2°35.315 9 340 7.7 101700 80
2008-02-27 09:22 51°9.294 2°35.219 11.3 336 7.8 101710 81
2008-02-27 09:23 51°9.275 2°35.125 10.7 339 7.7 101710 80
2008-02-27 09:24 51°9.257 2°35.031 11.7 336 7.7 101710 80
2008-02-27 09:25 51°9.241 2°34.941 9.1 334 7.7 101710 79
2008-02-27 09:26 51°9.249 2°34.871 10.5 305 7.7 101710 79
2008-02-27 09:27 51°9.267 2°34.846 9.9 305 7.8 101720 80
2008-02-27 09:28 51°9.273 2°34.832 9.6 305 7.9 101720 80
2008-02-27 09:29 51°9.272 2°34.82 8.1 305 7.9 101720 80
2008-02-27 09:30 51°9.266 2°34.808 7.2 303 7.9 101720 80
2008-02-27 09:31 51°9.258 2°34.798 10.6 304 8 101720 80
2008-02-27 09:32 51°9.256 2°34.792 5.2 304 8 101720 80
2008-02-27 09:33 51°9.315 2°34.822 7.9 304 7.9 101720 80
2008-02-27 09:34 51°9.438 2°34.897 8.1 301 7.9 101720 79
2008-02-27 09:35 51°9.61 2°35.004 10.6 307 7.8 101720 79
2008-02-27 09:36 51°9.789 2°35.114 9.1 303 7.8 101710 79
2008-02-27 09:37 51°9.967 2°35.229 8.1 302 7.8 101720 80
2008-02-27 09:38 51°10.145 2°35.349 9.9 305 7.8 101720 80
2008-02-27 09:39 51°10.324 2°35.47 8 304 7.8 101730 80
2008-02-27 09:40 51°10.498 2°35.599 8.8 305 7.8 101720 80
2008-02-27 09:41 51°10.662 2°35.752 7.1 307 7.8 101710 80
2008-02-27 09:42 51°10.821 2°35.917 4.4 302 7.8 101720 80
2008-02-27 09:43 51°10.981 2°36.084 6.9 304 7.8 101720 81
2008-02-27 09:44 51°11.139 2°36.249 8.6 303 7.9 101730 81
2008-02-27 09:45 51°11.299 2°36.413 8.4 304 7.9 101720 80
2008-02-27 09:46 51°11.457 2°36.577 5.9 301 8 101720 81
2008-02-27 09:47 51°11.617 2°36.741 6.8 308 8 101710 80
2008-02-27 09:48 51°11.775 2°36.903 8.2 301 8.1 101720 80
2008-02-27 09:49 51°11.933 2°37.07 5.9 309 8.1 101720 80
2008-02-27 09:50 51°12.089 2°37.24 6.9 305 8.1 101730 80
2008-02-27 09:51 51°12.247 2°37.409 6 306 8.2 101720 80
2008-02-27 09:52 51°12.403 2°37.581 6.7 303 8.2 101710 79
2008-02-27 09:53 51°12.559 2°37.752 7.3 305 8.2 101720 79
2008-02-27 09:54 51°12.711 2°37.931 6.9 304 8.3 101730 78
2008-02-27 09:55 51°12.864 2°38.111 9.3 309 8.3 101720 78
2008-02-27 09:56 51°13.018 2°38.289 7.4 306 8.3 101710 77
2008-02-27 09:57 51°13.171 2°38.467 8.7 302 8.2 101720 77
2008-02-27 09:58 51°13.325 2°38.646 6.8 301 8.3 101720 78
2008-02-27 09:59 51°13.481 2°38.82 9.5 302 8.3 101730 78
2008-02-27 10:00 51°13.656 2°38.919 10.7 304 8.3 101710 78
2008-02-27 10:01 51°13.844 2°39.005 6.8 306 8.2 101700 77
2008-02-27 10:02 51°14.017 2°39.126 10.9 308 8.2 101730 78
2008-02-27 10:03 51°14.193 2°39.248 6.8 306 8.2 101730 77
2008-02-27 10:04 51°14.37 2°39.369 9.7 304 8.2 101720 78
2008-02-27 10:05 51°14.547 2°39.493 9.6 305 8.1 101730 78
2008-02-27 10:06 51°14.726 2°39.621 7 308 8.1 101730 78
2008-02-27 10:07 51°14.898 2°39.744 7.7 303 8.1 101720 79
2008-02-27 10:08 51°15.076 2°39.875 10.9 303 8.1 101730 79
2008-02-27 10:09 51°15.248 2°40 8.7 302 8.1 101740 79
2008-02-27 10:10 51°15.425 2°40.125 6.4 303 8.2 101740 79
2008-02-27 10:11 51°15.597 2°40.258 9.4 305 8.2 101730 79
2008-02-27 10:12 51°15.774 2°40.388 11 307 8.1 101720 79
2008-02-27 10:13 51°15.945 2°40.513 8.5 303 8.1 101730 79
2008-02-27 10:14 51°16.119 2°40.646 10.5 304 8.1 101720 79
2008-02-27 10:15 51°16.293 2°40.776 9.6 308 8.1 101740 79
2008-02-27 10:16 51°16.463 2°40.898 11.2 304 8.1 101720 80
2008-02-27 10:17 51°16.636 2°41.025 11.5 303 8.1 101720 79
2008-02-27 10:18 51°16.808 2°41.151 8.9 305 8.1 101720 80
2008-02-27 10:19 51°16.983 2°41.274 8.4 303 8.1 101720 79
2008-02-27 10:20 51°17.15 2°41.394 12.1 307 8.1 101720 79
2008-02-27 10:21 51°17.322 2°41.519 11 307 8.1 101710 79
2008-02-27 10:22 51°17.49 2°41.636 10.5 307 8.1 101710 79
2008-02-27 10:23 51°17.661 2°41.755 11.4 301 8.1 101730 79
2008-02-27 10:24 51°17.832 2°41.876 10.6 309 8.1 101710 79
2008-02-27 10:25 51°18.003 2°41.995 11.3 304 8.1 101730 79
2008-02-27 10:26 51°18.177 2°42.114 11.5 309 8.1 101730 79
2008-02-27 10:27 51°18.336 2°42.252 8.6 303 8.1 101730 79
2008-02-27 10:28 51°18.417 2°42.513 3.2 303 8.1 101740 79
2008-02-27 10:29 51°18.46 2°42.805 3.5 308 8.1 101740 79
2008-02-27 10:30 51°18.501 2°43.097 2.6 306 8.1 101750 78
2008-02-27 10:31 51°18.549 2°43.39 2.4 303 8.1 101740 78
2008-02-27 10:32 51°18.594 2°43.679 4.3 309 8.1 101740 78
2008-02-27 10:33 51°18.646 2°43.965 5.2 303 8.1 101730 78
2008-02-27 10:34 51°18.692 2°44.247 2.6 304 8.1 101740 78
2008-02-27 10:35 51°18.735 2°44.529 2.7 306 8.1 101740 78
2008-02-27 10:36 51°18.772 2°44.81 2.3 303 8.1 101750 78
2008-02-27 10:37 51°18.815 2°45.089 3.6 308 8.1 101750 78
2008-02-27 10:38 51°18.856 2°45.377 1.9 57 8.1 101750 78
2008-02-27 10:39 51°18.89 2°45.658 1.7 303 8.2 101750 78
2008-02-27 10:40 51°18.926 2°45.949 2.7 58 8.2 101750 78
2008-02-27 10:41 51°18.961 2°46.227 2.2 305 8.2 101750 78
2008-02-27 10:42 51°18.996 2°46.515 2 305 8.2 101760 78
2008-02-27 10:43 51°19.031 2°46.791 2.7 302 8.2 101750 78
2008-02-27 10:44 51°19.067 2°47.068 1.9 61 8.2 101760 78
2008-02-27 10:45 51°19.101 2°47.348 0.8 306 8.2 101760 78
2008-02-27 10:46 51°19.13 2°47.632 2.2 309 8.3 101760 78
2008-02-27 10:47 51°19.167 2°47.924 1.1 306 8.3 101750 78
2008-02-27 10:48 51°19.201 2°48.212 1 306 8.3 101760 78
2008-02-27 10:49 51°19.24 2°48.5 0.8 54 8.3 101760 78
2008-02-27 10:50 51°19.253 2°48.786 2.8 26 8.4 101760 78
2008-02-27 10:51 51°19.209 2°49.081 2.1 20 8.5 101760 77
2008-02-27 10:52 51°19.156 2°49.375 2.4 27 8.5 101760 77
2008-02-27 10:53 51°19.109 2°49.674 2.9 20 8.4 101780 77
2008-02-27 10:54 51°19.073 2°49.966 3.1 31 8.4 101770 78
2008-02-27 10:55 51°19.04 2°50.265 2 56 8.4 101770 78
2008-02-27 10:56 51°19.044 2°50.56 2.1 61 8.4 101780 77
2008-02-27 10:57 51°19.091 2°50.839 1.9 53 8.3 101780 77
2008-02-27 10:58 51°19.135 2°51.129 1.4 310 8.3 101780 77
2008-02-27 10:59 51°19.176 2°51.407 0.9 309 8.3 101780 78
2008-02-27 11:00 51°19.218 2°51.691 2.7 54 8.3 101790 78
2008-02-27 11:01 51°19.258 2°51.968 1.9 58 8.3 101770 78
2008-02-27 11:02 51°19.302 2°52.257 1 310 8.3 101780 77
2008-02-27 11:03 51°19.343 2°52.532 3.1 308 8.3 101770 78
2008-02-27 11:04 51°19.389 2°52.819 1.4 52 8.3 101780 78
2008-02-27 11:05 51°19.431 2°53.102 2.8 308 8.3 101780 78
2008-02-27 11:06 51°19.474 2°53.376 0.7 307 8.3 101780 78
2008-02-27 11:07 51°19.515 2°53.66 1.7 306 8.4 101790 78
2008-02-27 11:08 51°19.555 2°53.936 0.9 304 8.4 101790 78
2008-02-27 11:09 51°19.598 2°54.216 1.9 56 8.4 101790 78
2008-02-27 11:10 51°19.635 2°54.496 1.4 305 8.5 101790 78
2008-02-27 11:11 51°19.673 2°54.777 1.6 58 8.5 101800 78
2008-02-27 11:12 51°19.71 2°55.065 1.4 307 8.5 101780 77
2008-02-27 11:13 51°19.751 2°55.337 0.9 59 8.5 101780 77
2008-02-27 11:14 51°19.788 2°55.614 1.5 305 8.5 101780 77
2008-02-27 11:15 51°19.826 2°55.891 1.4 303 8.6 101790 78
2008-02-27 11:16 51°19.864 2°56.168 1 59 8.6 101770 77
2008-02-27 11:17 51°19.904 2°56.445 1 55 8.6 101780 77
2008-02-27 11:18 51°19.947 2°56.724 1.5 306 8.7 101780 77
2008-02-27 11:19 51°19.988 2°57.009 2 62 8.7 101780 77
2008-02-27 11:20 51°20.023 2°57.282 1.3 302 8.6 101790 77
2008-02-27 11:21 51°20.067 2°57.562 1.6 307 8.6 101800 77
2008-02-27 11:22 51°20.107 2°57.841 1.8 302 8.7 101790 77
2008-02-27 11:23 51°20.15 2°58.121 1.4 306 8.7 101790 77
2008-02-27 11:24 51°20.194 2°58.394 2.8 303 8.7 101780 77
2008-02-27 11:25 51°20.233 2°58.676 1.6 303 8.7 101790 77
2008-02-27 11:26 51°20.272 2°58.954 1.4 310 8.7 101790 77
2008-02-27 11:27 51°20.312 2°59.238 1.3 307 8.7 101790 77
2008-02-27 11:28 51°20.356 2°59.522 1.4 308 8.8 101790 77
2008-02-27 11:29 51°20.399 2°59.8 0.7 62 8.8 101790 78
2008-02-27 11:30 51°20.444 3°0.082 0.8 304 8.9 101790 78
2008-02-27 11:31 51°20.49 3°0.364 2.5 309 9 101800 77
2008-02-27 11:32 51°20.536 3°0.642 2.9 310 9 101800 77
2008-02-27 11:33 51°20.581 3°0.919 1.3 306 9.1 101800 76
2008-02-27 11:34 51°20.626 3°1.199 1.2 309 9.1 101790 76
2008-02-27 11:35 51°20.672 3°1.48 1.2 311 9.1 101800 76
2008-02-27 11:36 51°20.719 3°1.753 1.2 303 9.1 101790 76
2008-02-27 11:37 51°20.766 3°2.033 1.6 303 9 101780 75
2008-02-27 11:38 51°20.814 3°2.316 1.3 304 9 101790 76
2008-02-27 11:39 51°20.858 3°2.601 1.5 301 9 101790 76
2008-02-27 11:40 51°20.909 3°2.883 1.5 303 8.9 101790 76
2008-02-27 11:41 51°20.952 3°3.167 0.6 302 8.9 101790 76
2008-02-27 11:42 51°20.997 3°3.442 1.6 308 8.9 101800 76
2008-02-27 11:43 51°21.046 3°3.722 1.5 304 8.9 101800 76
2008-02-27 11:44 51°21.088 3°4.009 2.3 307 8.9 101800 76
2008-02-27 11:45 51°21.136 3°4.286 2.9 310 8.8 101800 76
2008-02-27 11:46 51°21.188 3°4.566 2.8 304 8.8 101800 76
2008-02-27 11:47 51°21.247 3°4.843 1.9 302 8.8 101810 76
2008-02-27 11:48 51°21.311 3°5.12 2.1 307 8.8 101800 76
2008-02-27 11:49 51°21.378 3°5.382 2.3 308 8.8 101790 76
2008-02-27 11:50 51°21.451 3°5.656 2.8 304 8.8 101810 76
2008-02-27 11:51 51°21.526 3°5.925 3.1 310 8.7 101800 76
2008-02-27 11:52 51°21.596 3°6.196 1.6 305 8.8 101810 77
2008-02-27 11:53 51°21.668 3°6.471 2.1 305 8.8 101810 77
2008-02-27 11:54 51°21.738 3°6.734 1.7 305 8.7 101810 77
2008-02-27 11:55 51°21.81 3°7.017 1.6 304 8.7 101810 77
2008-02-27 11:56 51°21.799 3°7.3 3.5 1 8.7 101800 77
2008-02-27 11:57 51°21.619 3°7.432 9.2 357 8.4 101790 77
2008-02-27 11:58 51°21.409 3°7.363 10.1 345 8 101790 80
2008-02-27 11:59 51°21.221 3°7.324 7.2 8 7.7 101780 82
2008-02-27 12:00 51°21.132 3°7.37 5.9 16 7.6 101810 84
2008-02-27 12:01 51°21.07 3°7.368 6.6 2 7.6 101810 85
2008-02-27 12:02 51°21.014 3°7.296 9.1 341 7.5 101790 85
2008-02-27 12:03 51°20.973 3°7.205 7 334 7.5 101790 86
2008-02-27 12:04 51°20.95 3°7.116 8 325 7.6 101800 86
2008-02-27 12:05 51°20.941 3°7.042 5.7 305 7.7 101790 86
2008-02-27 12:06 51°20.932 3°6.984 8 302 7.8 101790 86
2008-02-27 12:07 51°20.919 3°6.921 7.5 327 7.8 101800 85
2008-02-27 12:08 51°20.919 3°6.801 8.9 310 7.8 101780 85
2008-02-27 12:09 51°20.94 3°6.725 8.2 303 7.8 101790 85
2008-02-27 12:10 51°20.962 3°6.653 8.1 305 7.8 101790 85
2008-02-27 12:11 51°20.991 3°6.565 8.9 305 7.8 101790 85
2008-02-27 12:12 51°21.013 3°6.494 7.8 304 7.8 101790 85
2008-02-27 12:13 51°21.027 3°6.434 8 301 7.8 101790 85
2008-02-27 12:14 51°21.041 3°6.376 6.6 306 7.8 101780 85
2008-02-27 12:15 51°21.061 3°6.305 6.9 305 7.8 101790 85
2008-02-27 12:16 51°21.088 3°6.223 6.5 302 7.8 101790 85
2008-02-27 12:17 51°21.112 3°6.14 7.1 303 7.8 101790 85
2008-02-27 12:18 51°21.131 3°6.073 7.8 309 7.8 101780 85
2008-02-27 12:19 51°21.154 3°5.992 7 301 7.8 101790 85
2008-02-27 12:20 51°21.181 3°5.904 6.5 302 7.8 101790 85
2008-02-27 12:21 51°21.206 3°5.822 8.9 306 7.8 101790 85
2008-02-27 12:22 51°21.228 3°5.746 8.3 304 7.8 101780 85
2008-02-27 12:23 51°21.249 3°5.671 6 304 7.8 101790 85
2008-02-27 12:24 51°21.265 3°5.605 8.5 303 7.8 101780 85
2008-02-27 12:25 51°21.283 3°5.535 7.9 307 7.8 101790 85
2008-02-27 12:26 51°21.302 3°5.464 5.8 310 7.8 101790 85
2008-02-27 12:27 51°21.322 3°5.39 7.5 307 7.8 101790 85
2008-02-27 12:28 51°21.343 3°5.316 8.2 304 7.8 101790 85
2008-02-27 12:29 51°21.366 3°5.241 5.9 307 7.8 101800 85
2008-02-27 12:30 51°21.386 3°5.17 8 303 7.8 101790 85
2008-02-27 12:31 51°21.408 3°5.096 5.8 305 7.8 101790 85
2008-02-27 12:32 51°21.431 3°5.037 7 305 7.8 101790 85
2008-02-27 12:33 51°21.466 3°4.979 5.8 303 7.9 101790 85
2008-02-27 12:34 51°21.515 3°4.925 6.4 307 7.9 101800 85
2008-02-27 12:35 51°21.551 3°4.881 5.5 304 7.9 101800 85
2008-02-27 12:36 51°21.582 3°4.838 5.3 304 8 101810 85
2008-02-27 12:37 51°21.616 3°4.81 5.6 53 8 101790 85
2008-02-27 12:38 51°21.632 3°4.844 3.7 54 7.9 101810 84
2008-02-27 12:39 51°21.618 3°4.875 4.7 41 7.9 101810 84
2008-02-27 12:40 51°21.6 3°4.889 5.2 35 7.8 101810 85
2008-02-27 12:41 51°21.582 3°4.895 5.4 36 7.8 101810 85
2008-02-27 12:42 51°21.563 3°4.898 5.5 34 7.7 101810 86
2008-02-27 12:43 51°21.548 3°4.923 2.3 58 7.7 101810 86
2008-02-27 12:44 51°21.575 3°4.951 4.4 304 7.7 101810 87
2008-02-27 12:45 51°21.658 3°4.952 7 307 7.8 101810 87
2008-02-27 12:46 51°21.741 3°4.956 7 308 7.9 101810 87
2008-02-27 12:47 51°21.819 3°4.96 6.2 302 7.9 101810 87
2008-02-27 12:48 51°21.896 3°4.964 5.1 308 8 101790 86
2008-02-27 12:49 51°21.995 3°4.968 6.3 309 8 101790 86
2008-02-27 12:50 51°22.124 3°4.964 6.1 309 8 101800 86
2008-02-27 12:51 51°22.286 3°4.965 5.4 307 8.1 101790 86
2008-02-27 12:52 51°22.461 3°4.972 6 307 8 101800 85
2008-02-27 12:53 51°22.632 3°4.977 4.6 303 8 101800 85
2008-02-27 12:54 51°22.798 3°4.983 6.8 302 8.1 101780 85
2008-02-27 12:55 51°22.948 3°4.992 5.7 304 8.1 101810 85
2008-02-27 12:56 51°23.096 3°5.002 5.2 302 8.1 101810 85
2008-02-27 12:57 51°23.273 3°5.017 6.6 304 8.1 101780 85
2008-02-27 12:58 51°23.467 3°5.036 5.7 309 8.1 101780 84
2008-02-27 12:59 51°23.661 3°5.056 5.4 306 8 101770 84
2008-02-27 13:00 51°23.858 3°5.079 7 309 8 101770 84
2008-02-27 13:01 51°24.059 3°5.098 6.9 309 7.9 101790 85
2008-02-27 13:02 51°24.26 3°5.114 6 305 7.9 101770 85
2008-02-27 13:03 51°24.456 3°5.131 5.5 302 7.9 101780 85
2008-02-27 13:04 51°24.651 3°5.141 5.5 304 7.8 101790 85
2008-02-27 13:05 51°24.842 3°5.142 5.5 302 7.8 101770 86
2008-02-27 13:06 51°25.034 3°5.146 6.2 304 7.8 101780 86
2008-02-27 13:07 51°25.224 3°5.151 6.9 308 7.8 101780 86
2008-02-27 13:08 51°25.415 3°5.155 7.8 307 7.8 101770 86
2008-02-27 13:09 51°25.603 3°5.159 6 302 7.7 101770 86
2008-02-27 13:10 51°25.791 3°5.167 7.7 309 7.7 101760 87
2008-02-27 13:11 51°25.978 3°5.168 7.1 303 7.7 101780 87
2008-02-27 13:12 51°26.165 3°5.17 6 303 7.7 101790 87
2008-02-27 13:13 51°26.353 3°5.17 4.9 306 7.7 101770 87
2008-02-27 13:14 51°26.539 3°5.171 7.1 303 7.7 101780 87
2008-02-27 13:15 51°26.725 3°5.17 5.5 305 7.7 101790 88
2008-02-27 13:16 51°26.91 3°5.17 5.9 304 7.6 101770 88
2008-02-27 13:17 51°27.101 3°5.172 8 309 7.6 101760 88
2008-02-27 13:18 51°27.29 3°5.172 7 302 7.6 101780 88
2008-02-27 13:19 51°27.477 3°5.173 6.4 302 7.7 101770 88
2008-02-27 13:20 51°27.671 3°5.17 7.3 305 7.7 101790 87
2008-02-27 13:21 51°27.851 3°5.111 10.5 305 7.7 101780 87
2008-02-27 13:22 51°28.007 3°4.94 8.1 305 7.7 101760 87
2008-02-27 13:23 51°28.174 3°4.775 10.2 308 7.7 101750 86
2008-02-27 13:24 51°28.34 3°4.614 9.9 306 7.7 101750 86
2008-02-27 13:25 51°28.507 3°4.455 8 301 7.7 101770 87
2008-02-27 13:26 51°28.679 3°4.296 7.4 303 7.7 101770 87
2008-02-27 13:27 51°28.851 3°4.135 8.7 305 7.7 101760 87
2008-02-27 13:28 51°29.02 3°3.978 6.7 304 7.6 101750 88
2008-02-27 13:29 51°29.195 3°3.818 8.7 304 7.6 101770 88
2008-02-27 13:30 51°29.367 3°3.657 8.1 303 7.6 101780 89
2008-02-27 13:31 51°29.533 3°3.499 9 309 7.5 101760 89
2008-02-27 13:32 51°29.706 3°3.337 6.3 302 7.5 101770 89
2008-02-27 13:33 51°29.873 3°3.174 9.1 309 7.5 101770 89
2008-02-27 13:34 51°30.039 3°3.014 7.8 306 7.5 101770 89
2008-02-27 13:35 51°30.216 3°2.865 8.3 302 7.6 101760 89
2008-02-27 13:36 51°30.404 3°2.785 7.1 303 7.6 101770 89
2008-02-27 13:37 51°30.587 3°2.712 7 303 7.6 101770 89
2008-02-27 13:38 51°30.778 3°2.63 7.5 303 7.6 101760 88
2008-02-27 13:39 51°30.967 3°2.55 9.3 307 7.7 101780 88
2008-02-27 13:40 51°31.155 3°2.475 10.2 307 7.7 101750 88
2008-02-27 13:41 51°31.349 3°2.396 10 303 7.7 101760 87
2008-02-27 13:42 51°31.54 3°2.324 10.5 303 7.8 101760 87
2008-02-27 13:43 51°31.729 3°2.255 10.5 302 7.8 101770 86
2008-02-27 13:44 51°31.922 3°2.187 10.5 307 7.8 101750 86
2008-02-27 13:45 51°32.117 3°2.114 10.7 308 7.9 101770 86
2008-02-27 13:46 51°32.307 3°2.057 7.6 304 7.9 101750 86
2008-02-27 13:47 51°32.503 3°2.008 7.7 303 7.9 101750 86
2008-02-27 13:48 51°32.695 3°1.955 9.6 301 7.9 101750 85
2008-02-27 13:49 51°32.886 3°1.903 7.9 301 7.9 101760 85
2008-02-27 13:50 51°33.074 3°1.851 10 304 8 101750 85
2008-02-27 13:51 51°33.263 3°1.797 8.7 304 8 101750 85
2008-02-27 13:52 51°33.448 3°1.744 10.8 306 8 101750 84
2008-02-27 13:53 51°33.642 3°1.691 7.3 304 8 101760 84
2008-02-27 13:54 51°33.829 3°1.628 12.3 310 8 101770 84
2008-02-27 13:55 51°34.003 3°1.517 8 302 8 101760 84
2008-02-27 13:56 51°34.173 3°1.373 12.6 303 8 101760 84
2008-02-27 13:57 51°34.324 3°1.199 11.4 304 8 101750 84
2008-02-27 13:58 51°34.466 3°1.017 9.7 305 8 101750 84
2008-02-27 13:59 51°34.602 3°0.809 10.2 308 8 101770 84
2008-02-27 14:00 51°34.722 3°0.565 12.5 301 8 101750 83
2008-02-27 14:01 51°34.806 3°0.281 13.1 303 8.1 101750 83
2008-02-27 14:02 51°34.861 2°59.967 13.9 324 8.1 101750 82
2008-02-27 14:03 51°34.916 2°59.653 12.9 324 8.1 101750 82
2008-02-27 14:04 51°34.941 2°59.336 14.3 326 8.1 101740 82
2008-02-27 14:05 51°34.894 2°59.01 14.1 334 8.1 101760 81
2008-02-27 14:06 51°34.8 2°58.702 12.2 339 8.1 101740 81
2008-02-27 14:07 51°34.674 2°58.421 12.3 339 8.2 101750 81
2008-02-27 14:08 51°34.548 2°58.142 10.4 336 8.1 101750 81
2008-02-27 14:09 51°34.425 2°57.869 12.5 338 8.1 101750 82
2008-02-27 14:10 51°34.286 2°57.609 12.5 338 8.1 101750 82
2008-02-27 14:11 51°34.141 2°57.36 14.4 340 8.1 101750 83
2008-02-27 14:12 51°33.992 2°57.103 11.7 340 8.1 101750 82
2008-02-27 14:13 51°33.826 2°56.887 12.1 343 8.2 101750 82
2008-02-27 14:14 51°33.625 2°56.777 12.1 349 8.1 101740 82
2008-02-27 14:15 51°33.406 2°56.72 12.1 351 8 101740 83
2008-02-27 14:16 51°33.19 2°56.666 11.3 348 7.9 101750 83
2008-02-27 14:17 51°32.98 2°56.593 11.6 347 7.9 101760 83
2008-02-27 14:18 51°32.764 2°56.512 10.2 347 7.9 101760 83
2008-02-27 14:19 51°32.552 2°56.43 11.4 347 7.9 101760 83
2008-02-27 14:20 51°32.343 2°56.349 11.6 347 8 101770 83
2008-02-27 14:21 51°32.125 2°56.294 10.3 352 7.9 101760 83
2008-02-27 14:22 51°31.907 2°56.29 10.4 348 7.9 101750 84
2008-02-27 14:23 51°31.693 2°56.267 10.2 349 7.9 101760 84
2008-02-27 14:24 51°31.473 2°56.242 10.7 347 7.9 101770 84
2008-02-27 14:25 51°31.258 2°56.215 9.6 346 8 101760 85
2008-02-27 14:26 51°31.048 2°56.187 9.9 346 7.9 101760 85
2008-02-27 14:27 51°30.834 2°56.157 10.4 347 7.9 101760 85
2008-02-27 14:28 51°30.625 2°56.124 10.5 346 7.9 101770 85
2008-02-27 14:29 51°30.42 2°56.087 11.4 348 7.9 101770 85
2008-02-27 14:30 51°30.206 2°56.05 11 342 7.9 101770 85
2008-02-27 14:31 51°29.996 2°56.02 10.2 342 7.9 101770 86
2008-02-27 14:32 51°29.787 2°55.981 9.5 343 8 101780 87
2008-02-27 14:33 51°29.57 2°55.944 10.1 343 7.9 101770 87
2008-02-27 14:34 51°29.361 2°55.906 11.6 343 7.8 101780 87
2008-02-27 14:35 51°29.159 2°55.859 9.7 341 7.8 101780 87
2008-02-27 14:36 51°28.945 2°55.821 10.4 345 7.8 101780 87
2008-02-27 14:37 51°28.735 2°55.78 9.2 344 7.7 101780 87
2008-02-27 14:38 51°28.529 2°55.736 9.5 343 7.7 101780 87
2008-02-27 14:39 51°28.317 2°55.692 10.2 342 7.7 101780 87
2008-02-27 14:40 51°28.112 2°55.65 9.6 343 7.7 101770 88
2008-02-27 14:41 51°27.911 2°55.61 11.2 341 7.8 101790 88
2008-02-27 14:42 51°27.702 2°55.571 9.3 338 7.7 101800 88
2008-02-27 14:43 51°27.501 2°55.522 11.2 339 7.7 101790 89
2008-02-27 14:44 51°27.302 2°55.458 10.3 339 7.7 101800 89
2008-02-27 14:45 51°27.099 2°55.392 10.3 339 7.7 101790 89
2008-02-27 14:46 51°26.898 2°55.336 10.4 339 7.6 101780 89
2008-02-27 14:47 51°26.699 2°55.279 11.4 341 7.6 101780 90
2008-02-27 14:48 51°26.493 2°55.224 10.7 340 7.6 101790 89
2008-02-27 14:49 51°26.291 2°55.17 10.8 343 7.6 101780 89
2008-02-27 14:50 51°26.091 2°55.117 11.1 342 7.6 101770 88
2008-02-27 14:51 51°25.88 2°55.067 10.6 345 7.6 101780 88
2008-02-27 14:52 51°25.68 2°55.017 11.3 343 7.6 101780 88
2008-02-27 14:53 51°25.479 2°54.969 10.9 344 7.6 101780 88
2008-02-27 14:54 51°25.27 2°54.916 11.6 339 7.6 101780 88
2008-02-27 14:55 51°25.062 2°54.866 11.6 340 7.6 101790 88
2008-02-27 14:56 51°24.859 2°54.821 11 340 7.6 101790 89
2008-02-27 14:57 51°24.65 2°54.775 10.1 338 7.6 101790 89
2008-02-27 14:58 51°24.445 2°54.729 11.9 340 7.6 101780 90
2008-02-27 14:59 51°24.247 2°54.691 10.2 339 7.6 101780 91
2008-02-27 15:00 51°24.043 2°54.651 11 340 7.6 101790 92
2008-02-27 15:01 51°23.848 2°54.614 11.3 340 7.6 101780 92
2008-02-27 15:02 51°23.654 2°54.579 11 343 7.6 101790 93
2008-02-27 15:03 51°23.455 2°54.54 10.3 341 7.5 101780 93
2008-02-27 15:04 51°23.257 2°54.51 9.8 340 7.5 101790 93
2008-02-27 15:05 51°23.066 2°54.457 11.3 339 7.5 101780 93
2008-02-27 15:06 51°22.867 2°54.393 11.3 340 7.5 101790 93
2008-02-27 15:07 51°22.672 2°54.333 10.8 340 7.5 101790 93
2008-02-27 15:08 51°22.481 2°54.273 10.1 341 7.6 101800 93
2008-02-27 15:09 51°22.281 2°54.21 10.2 344 7.6 101800 93
2008-02-27 15:10 51°22.092 2°54.149 10.8 339 7.6 101790 93
2008-02-27 15:11 51°21.903 2°54.085 10.8 340 7.7 101790 93
2008-02-27 15:12 51°21.706 2°54.019 9.3 342 7.6 101790 93
2008-02-27 15:13 51°21.513 2°53.955 9.4 339 7.7 101810 93
2008-02-27 15:14 51°21.326 2°53.887 10 344 7.7 101800 93
2008-02-27 15:15 51°21.132 2°53.817 10.2 342 7.7 101790 92
2008-02-27 15:16 51°20.943 2°53.748 9.9 342 7.7 101800 92
2008-02-27 15:17 51°20.757 2°53.682 8.9 339 7.7 101800 92
2008-02-27 15:18 51°20.562 2°53.608 8.8 340 7.7 101810 92
2008-02-27 15:19 51°20.376 2°53.543 9.6 336 7.7 101800 92
2008-02-27 15:20 51°20.19 2°53.474 9.8 339 7.7 101800 92
2008-02-27 15:21 51°19.994 2°53.41 9 337 7.7 101800 92
2008-02-27 15:22 51°19.804 2°53.336 8.9 340 7.7 101800 92
2008-02-27 15:23 51°19.618 2°53.261 9.8 339 7.7 101810 92
2008-02-27 15:24 51°19.426 2°53.182 9.5 337 7.7 101800 92
2008-02-27 15:25 51°19.235 2°53.107 10 339 7.7 101800 92
2008-02-27 15:26 51°19.047 2°53.033 9.9 338 7.7 101800 92
2008-02-27 15:27 51°18.851 2°52.959 10.7 338 7.7 101800 92
2008-02-27 15:28 51°18.664 2°52.887 10.4 339 7.7 101800 92
2008-02-27 15:29 51°18.477 2°52.817 10.7 340 7.8 101810 92
2008-02-27 15:30 51°18.283 2°52.746 10.3 338 7.8 101790 92
2008-02-27 15:31 51°18.098 2°52.679 10.2 339 7.8 101810 91
2008-02-27 15:32 51°17.915 2°52.615 9.6 338 7.9 101800 91
2008-02-27 15:33 51°17.726 2°52.548 9.4 338 7.9 101810 91
2008-02-27 15:34 51°17.542 2°52.484 9.9 340 7.9 101810 91
2008-02-27 15:35 51°17.356 2°52.438 9.4 338 7.9 101800 91
2008-02-27 15:36 51°17.163 2°52.443 9.8 343 7.9 101800 91
2008-02-27 15:37 51°16.969 2°52.502 9.1 344 7.9 101810 91
2008-02-27 15:38 51°16.782 2°52.623 9.2 346 7.9 101800 91
2008-02-27 15:39 51°16.589 2°52.743 8.9 344 7.8 101810 91
2008-02-27 15:40 51°16.406 2°52.878 9.3 344 7.8 101800 91
2008-02-27 15:41 51°16.221 2°53.015 8.5 342 7.8 101810 91
2008-02-27 15:42 51°16.03 2°53.156 8.8 347 7.8 101810 91
2008-02-27 15:43 51°15.843 2°53.294 8.1 346 7.8 101820 91
2008-02-27 15:44 51°15.664 2°53.447 7.4 347 7.8 101820 91
2008-02-27 15:45 51°15.484 2°53.623 8.9 348 7.7 101820 91
2008-02-27 15:46 51°15.309 2°53.795 8.1 350 7.7 101820 90
2008-02-27 15:47 51°15.139 2°53.967 7.5 348 7.7 101820 90
2008-02-27 15:48 51°14.958 2°54.15 8.1 348 7.7 101820 90
2008-02-27 15:49 51°14.788 2°54.33 7.2 348 7.7 101830 90
2008-02-27 15:50 51°14.625 2°54.534 6.9 351 7.7 101820 90
2008-02-27 15:51 51°14.485 2°54.794 6.5 351 7.7 101820 90
2008-02-27 15:52 51°14.359 2°55.078 7.2 355 7.7 101820 90
2008-02-27 15:53 51°14.21 2°55.311 6.8 351 7.8 101820 90
2008-02-27 15:54 51°14.077 2°55.469 5.1 347 7.8 101820 90
2008-02-27 15:55 51°13.952 2°55.549 6.9 346 7.9 101820 88
2008-02-27 15:56 51°13.829 2°55.632 3.9 346 8 101820 86
2008-02-27 15:57 51°13.755 2°55.71 4.1 21 8.2 101830 84
2008-02-27 15:58 51°13.709 2°55.787 1 15 8.3 101830 82
2008-02-27 15:59 51°13.68 2°55.878 2.8 43 8.4 101830 81
2008-02-27 16:00 51°13.665 2°55.947 2.9 36 8.5 101840 79